Weather History for Indianapolis, IN

Change the Weather History Date:

Thursday, August 1, 2013

  Actual Average (KEYE) Record (KEYE)
Temperature  
Mean Temperature 70 °F 75 °F  
Max Temperature 81 °F 83 °F 93 °F (2006)
Min Temperature 59 °F 66 °F 60 °F (1998)
Degree Days  
Heating Degree Days 0 0  
Month to date heating degree days 0  
Since 1 June heating degree days 15  
Since 1 July heating degree days 1  
Cooling Degree Days 5 10  
Month to date cooling degree days 10  
Year to date cooling degree days 646  
Since 1 June cooling degree days 562  
Growing Degree Days 20 (Base 50)    
Moisture  
Dew Point 58 °F    
Average Humidity 68    
Maximum Humidity 91    
Minimum Humidity 32    
Precipitation  
Precipitation 0.01 in 0.08 in 0.10 in (2000)
Month to date precipitation 0.08  
Year to date precipitation 25.54  
Sea Level Pressure  
Sea Level Pressure 30.00 in    
Wind  
Wind Speed 5 mph (WNW)    
Max Wind Speed 18 mph    
Max Gust Speed 28 mph    
Visibility 7 miles    
Events Fog    
T = Trace of Precipitation, MM = Missing Value Source: NWS Daily Summary

Daily Weather History Graph

Daily Weather History Graph

Search for Another Location

Airport:

Trip Planner

Search our weather history database for the weather conditions in past years. The results will help you decide how hot, cold, wet, or windy it might be!

Date:

Astronomy

Aug. 01, 2013 Rise Set
Actual Time 6:43 AM EDT 8:58 PM EDT
Civil Twilight 6:13 AM EDT 9:28 PM EDT
Nautical Twilight 5:35 AM EDT 10:05 PM EDT
Astronomical Twilight 4:54 AM EDT 10:46 PM EDT
Moon 2:19 AM EDT (8/1) 5:06 PM EDT (8/1)
Length of Visible Light 15h 15m
Length of Day
14h 14m
Waning Crescent, 23% of the Moon is Illuminated
Aug 1
Waning Crescent
Aug 6
New
Aug 14
First Quarter
Aug 20
Full
Aug 28
Last Quarter

Hourly Weather History & Observations

Time (EDT) Temp. Heat Index Dew Point Humidity Pressure Visibility Wind Dir Wind Speed Gust Speed Precip Events Conditions
12:15 AM 69.4 °F - 65.3 °F 87% 30.00 in 5.0 mi NNW 3.5 mph - N/A   Haze
12:35 AM 69.3 °F - 65.3 °F 87% 30.00 in 4.0 mi NNW 3.5 mph - N/A   Overcast
12:55 AM 68.4 °F - 64.6 °F 88% 30.00 in 3.0 mi NNW 3.5 mph - N/A   Scattered Clouds
1:15 AM 67.5 °F - 63.9 °F 88% 30.00 in 2.5 mi NNW 3.5 mph - N/A   Clear
1:35 AM 67.1 °F - 63.5 °F 88% 29.99 in 2.0 mi NW 3.5 mph - N/A   Clear
1:55 AM 66.4 °F - 63.0 °F 89% 29.99 in 1.8 mi NW 3.5 mph - N/A   Mist
2:15 AM 66.2 °F - 62.6 °F 88% 29.98 in 1.8 mi NW 3.5 mph - N/A   Mist
2:35 AM 65.5 °F - 62.2 °F 89% 29.98 in 1.5 mi Calm Calm - N/A   Mist
2:55 AM 64.8 °F - 61.5 °F 89% 29.97 in 1.2 mi Calm Calm - N/A   Mist
3:15 AM 64.9 °F - 61.9 °F 90% 29.98 in 1.5 mi WNW 3.5 mph - N/A   Scattered Clouds
3:35 AM 64.8 °F - 61.7 °F 90% 29.97 in 1.2 mi Calm Calm - N/A   Mostly Cloudy
3:55 AM 64.8 °F - 61.9 °F 90% 29.98 in 0.5 mi Calm Calm - N/A Fog Fog
4:15 AM 65.3 °F - 62.2 °F 90% 29.98 in 0.2 mi NW 3.5 mph - N/A Fog Fog
4:35 AM 65.3 °F - 62.6 °F 91% 29.98 in 0.2 mi NW 3.5 mph - N/A Fog Fog
4:55 AM 65.7 °F - 62.8 °F 90% 29.99 in 0.5 mi NW 4.6 mph - N/A Fog Fog
5:15 AM 65.7 °F - 62.8 °F 90% 29.99 in 1.2 mi NW 5.8 mph - N/A   Overcast
5:35 AM 65.3 °F - 62.6 °F 91% 29.99 in 2.5 mi NW 4.6 mph - N/A   Overcast
5:55 AM 64.8 °F - 61.9 °F 90% 29.99 in 3.0 mi NW 4.6 mph - N/A   Overcast
6:15 AM 64.6 °F - 61.7 °F 90% 29.99 in 1.5 mi WNW 4.6 mph - N/A   Overcast
6:35 AM 64.4 °F - 61.7 °F 91% 29.99 in 0.5 mi Calm Calm - N/A Fog Fog
6:55 AM 64.4 °F - 61.3 °F 90% 30.00 in 0.2 mi WNW 3.5 mph - N/A Fog Fog
7:15 AM 64.0 °F - 61.2 °F 90% 30.00 in 0.5 mi NW 5.8 mph - N/A Fog Fog
7:35 AM 64.0 °F - 61.2 °F 90% 30.00 in 0.8 mi NW 6.9 mph - N/A   Overcast
7:55 AM 64.4 °F - 61.5 °F 90% 30.01 in 1.0 mi NW 5.8 mph - N/A   Overcast
8:15 AM 64.6 °F - 61.7 °F 90% 30.01 in 1.2 mi NW 5.8 mph - N/A   Overcast
8:35 AM 64.8 °F - 61.9 °F 90% 30.02 in 2.0 mi NW 6.9 mph - 0.01 in   Overcast
8:55 AM 65.3 °F - 62.4 °F 90% 30.03 in 3.0 mi NW 6.9 mph - 0.01 in   Overcast
9:15 AM 66.0 °F - 63.1 °F 90% 30.03 in 4.0 mi NNW 6.9 mph - N/A   Overcast
9:35 AM 66.6 °F - 63.5 °F 90% 30.03 in 5.0 mi NW 8.1 mph - N/A   Mostly Cloudy
9:55 AM 68.2 °F - 63.9 °F 86% 30.03 in 7.0 mi NNW 5.8 mph - N/A   Scattered Clouds
10:15 AM 70.0 °F - 63.0 °F 78% 30.03 in 7.0 mi NNW 5.8 mph - N/A   Clear
10:35 AM 71.6 °F - 62.1 °F 72% 30.03 in 10.0 mi NNW 6.9 mph - N/A   Clear
10:55 AM 72.5 °F - 60.4 °F 66% 30.03 in 10.0 mi NW 4.6 mph - N/A   Clear
11:15 AM 74.5 °F - 60.4 °F 61% 30.04 in 10.0 mi WNW 3.5 mph - N/A   Clear
11:35 AM 75.4 °F - 59.9 °F 58% 30.04 in 10.0 mi WNW 4.6 mph - N/A   Clear
11:55 AM 75.7 °F - 59.4 °F 57% 30.04 in 10.0 mi WNW 4.6 mph - N/A   Clear
12:15 PM 77.0 °F - 58.8 °F 53% 30.03 in 10.0 mi WNW 6.9 mph - N/A   Clear
12:35 PM 77.5 °F - 59.4 °F 53% 30.03 in 10.0 mi NW 8.1 mph - N/A   Clear
12:55 PM 78.6 °F - 59.7 °F 52% 30.03 in 10.0 mi WNW 5.8 mph - N/A   Scattered Clouds
1:15 PM 78.6 °F - 59.9 °F 52% 30.03 in 10.0 mi NW 6.9 mph - N/A   Scattered Clouds
1:35 PM 79.9 °F - 57.4 °F 46% 30.02 in 10.0 mi West 9.2 mph - N/A   Scattered Clouds
1:55 PM 80.1 °F 80.6 °F 58.1 °F 47% 30.01 in 10.0 mi West 13.8 mph 17.3 mph N/A   Mostly Cloudy
2:15 PM 81.0 °F 80.7 °F 55.2 °F 41% 30.00 in 10.0 mi West 10.4 mph 16.1 mph N/A   Scattered Clouds
2:35 PM 81.0 °F - 49.5 °F 33% 30.00 in 10.0 mi WNW 11.5 mph 21.9 mph N/A   Scattered Clouds
2:55 PM 80.8 °F - 49.5 °F 33% 30.00 in 10.0 mi WNW 15.0 mph 27.6 mph N/A   Clear
3:15 PM 81.1 °F - 48.6 °F 32% 30.00 in 10.0 mi WNW 18.4 mph 25.3 mph N/A   Clear
3:35 PM 80.8 °F - 49.3 °F 33% 30.00 in 10.0 mi WNW 17.3 mph 25.3 mph N/A   Clear
3:55 PM 81.0 °F - 50.2 °F 34% 30.00 in 10.0 mi WNW 15.0 mph 24.2 mph N/A   Clear
4:15 PM 81.3 °F - 50.7 °F 34% 30.00 in 10.0 mi WNW 15.0 mph 23.0 mph N/A   Clear
4:35 PM 80.8 °F - 52.5 °F 37% 30.00 in 10.0 mi WNW 10.4 mph 21.9 mph N/A   Scattered Clouds
4:55 PM 80.4 °F - 49.8 °F 34% 30.00 in 10.0 mi WNW 11.5 mph 19.6 mph N/A   Scattered Clouds
5:15 PM 80.6 °F - 50.2 °F 35% 30.00 in 10.0 mi West 15.0 mph 19.6 mph N/A   Scattered Clouds
5:35 PM 80.6 °F - 51.3 °F 36% 30.00 in 10.0 mi WNW 12.7 mph 21.9 mph N/A   Scattered Clouds
5:55 PM 80.1 °F - 51.6 °F 37% 29.99 in 10.0 mi NW 10.4 mph 16.1 mph N/A   Clear
6:15 PM 79.7 °F - 52.5 °F 39% 29.99 in 10.0 mi NW 10.4 mph 16.1 mph N/A   Clear
6:35 PM 79.2 °F - 53.1 °F 40% 29.99 in 10.0 mi WNW 9.2 mph - N/A   Scattered Clouds
6:55 PM 78.8 °F - 53.8 °F 42% 29.98 in 10.0 mi WNW 9.2 mph - N/A   Clear
7:15 PM 78.4 °F - 55.2 °F 45% 29.98 in 10.0 mi WNW 6.9 mph - N/A   Scattered Clouds
7:35 PM 77.7 °F - 54.5 °F 45% 29.97 in 10.0 mi West 6.9 mph - N/A   Scattered Clouds
7:55 PM 76.6 °F - 54.9 °F 47% 29.98 in 10.0 mi WNW 6.9 mph - N/A   Clear
8:15 PM 75.2 °F - 54.5 °F 48% 29.98 in 10.0 mi WNW 5.8 mph - N/A   Scattered Clouds
8:35 PM 72.9 °F - 55.4 °F 54% 29.98 in 10.0 mi West 3.5 mph - N/A   Scattered Clouds
8:55 PM 71.8 °F - 55.9 °F 57% 29.98 in 10.0 mi WNW 3.5 mph - N/A   Scattered Clouds
9:15 PM 70.0 °F - 56.8 °F 63% 29.99 in 10.0 mi Calm Calm - N/A   Scattered Clouds
9:35 PM 67.5 °F - 57.6 °F 70% 29.99 in 10.0 mi Calm Calm - N/A   Scattered Clouds
9:55 PM 64.2 °F - 58.1 °F 80% 29.99 in 10.0 mi Calm Calm - N/A   Scattered Clouds
10:15 PM 62.8 °F - 57.4 °F 82% 30.00 in 10.0 mi West 3.5 mph - N/A   Clear
10:35 PM 62.6 °F - 56.8 °F 81% 30.00 in 10.0 mi West 3.5 mph - N/A   Scattered Clouds
10:55 PM 60.8 °F - 55.9 °F 84% 30.00 in 10.0 mi WSW 4.6 mph - N/A   Clear
11:15 PM 59.7 °F - 55.2 °F 85% 30.00 in 10.0 mi Calm Calm - N/A   Clear
11:35 PM 59.0 °F - 54.7 °F 86% 30.00 in 10.0 mi West 3.5 mph - N/A   Clear
11:55 PM 59.9 °F - 55.6 °F 86% 30.01 in 10.0 mi West 4.6 mph - N/A   Clear